Overview Statistics Trail Chart Weather Telemetry Raw packets
 

This is the latest recevied weather packets stored in our database for station/object W0CHP-13. If no packets are shown the sender has not sent any weather packets the latest 10 day(s).

<< 21 22 23 24 25 26 27 >>
Time Temp. Humidity Pressure Rain* Wind** Luminosity Snow
1788375018 31.67° C 57% 1011 hPa 0 mm - 703 W/m² -
1788374418 31.11° C 59% 1011 hPa 0 mm - 713 W/m² -
1788373816 31.11° C 59% 1011.3 hPa 0 mm - 716 W/m² -
1788373215 30.56° C 62% 1011.3 hPa 0 mm - 761 W/m² -
1788372618 30° C 62% 1011.3 hPa 0 mm - 724 W/m² -
1788372017 30° C 64% 1011.3 hPa 0 mm - 721 W/m² -
1788371415 29.44° C 61% 1011.3 hPa 0 mm - 718 W/m² -
1788370818 28.89° C 62% 1011.3 hPa 0 mm - 710 W/m² -
1788370217 28.89° C 66% 1011.6 hPa 0 mm - 715 W/m² -
1788369615 28.33° C 69% 1011.3 hPa 0 mm - 706 W/m² -
1788369018 27.78° C 71% 1011.6 hPa 0 mm - 686 W/m² -
1788368417 27.22° C 73% 1011.6 hPa 0 mm - 667 W/m² -
1788367818 27.22° C 71% 1011.3 hPa 0 mm - 632 W/m² -
1788367216 26.67° C 73% 1011.6 hPa 0 mm - 627 W/m² -
1788366618 26.67° C 73% 1012 hPa 0 mm - 583 W/m² -
1788366017 26.67° C 73% 1012 hPa 0 mm - 628 W/m² -
1788365416 26.11° C 74% 1012 hPa 0 mm - 611 W/m² -
1788364817 25.56° C 76% 1012 hPa 0 mm - 578 W/m² -
1788364216 25.56° C 78% 1011.7 hPa 0 mm - 565 W/m² -
1788363618 25° C 78% 1011.6 hPa 0 mm - 543 W/m² -
1788363017 24.44° C 79% 1011.6 hPa 0 mm - 492 W/m² -
1788362415 23.89° C 80% 1011.7 hPa 0 mm - 238 W/m² -
1788361817 23.89° C 82% 1012 hPa 0 mm - 488 W/m² -
1788361216 23.33° C 84% 1012.3 hPa 0 mm - 449 W/m² -
1788360618 22.78° C 84% 1012 hPa 0 mm - 265 W/m² -

* Rain latest 24 hours (hover to see other rain measurements)
** Current wind speed in m/s (hover to see current wind gust speed)